�������l�o���
Date,Time,MP-1(��Sv/h),MP-2(��Sv/h),MP-3(��Sv/h),MP-4(��Sv/h),MP-5(��Sv/h),MP-6(��Sv/h),MP-7(��Sv/h),MP-8(��Sv/h),����,����(m/s),���J
2023/02/10,00:00,0.552,0.803,0.504,1.029,0.711,0.317,0.577,0.549,�쐼,1.8,��
2023/02/10,00:10,0.553,0.802,0.506,1.029,0.714,0.316,0.577,0.551,��,3.1,��
2023/02/10,00:20,0.553,0.801,0.505,1.034,0.714,0.317,0.576,0.549,�쐼,1.8,��
2023/02/10,00:30,0.552,0.803,0.505,1.030,0.712,0.318,0.575,0.550,���k��,3.3,��
2023/02/10,00:40,0.552,0.802,0.506,1.032,0.714,0.317,0.578,0.548,���k��,1.5,��
2023/02/10,00:50,0.552,0.802,0.507,1.028,0.712,0.316,0.576,0.551,�k��,2.6,��
2023/02/10,01:00,0.551,0.802,0.504,1.031,0.714,0.316,0.577,0.550,�k��,3.1,��
2023/02/10,01:10,0.552,0.802,0.505,1.032,0.714,0.317,0.576,0.549,�k�k��,2.6,��
2023/02/10,01:20,0.552,0.801,0.506,1.030,0.711,0.315,0.576,0.551,�k�k��,3.4,��
2023/02/10,01:30,0.552,0.803,0.505,1.030,0.713,0.316,0.575,0.549,�k�k��,2.6,��
2023/02/10,01:40,0.552,0.800,0.505,1.030,0.712,0.317,0.579,0.550,�k��,3.3,��
2023/02/10,01:50,0.552,0.804,0.505,1.030,0.714,0.317,0.576,0.548,�k�k��,3.3,��
2023/02/10,02:00,0.552,0.804,0.505,1.030,0.712,0.316,0.577,0.550,�k��,3.7,��
2023/02/10,02:10,0.552,0.803,0.505,1.030,0.712,0.318,0.578,0.550,�k�k��,4.2,��
2023/02/10,02:20,0.554,0.804,0.505,1.029,0.714,0.317,0.577,0.550,�k�k��,4.6,��
2023/02/10,02:30,0.552,0.803,0.504,1.031,0.712,0.317,0.577,0.549,�k��,4.7,��
2023/02/10,02:40,0.550,0.803,0.504,1.030,0.711,0.316,0.576,0.549,�k��,4.9,��
2023/02/10,02:50,0.552,0.803,0.505,1.029,0.713,0.316,0.575,0.549,�k��,5.5,��
2023/02/10,03:00,0.552,0.802,0.507,1.030,0.712,0.317,0.576,0.549,�k�k��,5.5,��
2023/02/10,03:10,0.554,0.801,0.505,1.031,0.712,0.317,0.576,0.549,�k�k��,6.6,��
2023/02/10,03:20,0.552,0.801,0.506,1.029,0.713,0.316,0.577,0.551,�k�k��,6.5,��
2023/02/10,03:30,0.551,0.803,0.506,1.030,0.710,0.317,0.577,0.549,�k��,5.6,��
2023/02/10,03:40,0.551,0.802,0.505,1.029,0.714,0.318,0.577,0.549,�k�k��,6.7,��
2023/02/10,03:50,0.549,0.803,0.506,1.030,0.712,0.316,0.577,0.551,�k�k��,6.3,��
2023/02/10,04:00,0.551,0.801,0.506,1.028,0.713,0.318,0.577,0.550,�k��,6.7,��
2023/02/10,04:10,0.552,0.803,0.505,1.031,0.712,0.317,0.575,0.550,�k��,5.6,��
2023/02/10,04:20,0.551,0.804,0.506,1.031,0.712,0.317,0.577,0.549,�k��,6.3,��
2023/02/10,04:30,0.551,0.803,0.506,1.031,0.711,0.316,0.577,0.549,�k��,6.5,��
2023/02/10,04:40,0.553,0.802,0.505,1.031,0.712,0.317,0.576,0.550,�k��,6.6,��
2023/02/10,04:50,0.552,0.800,0.504,1.029,0.713,0.317,0.577,0.551,�k��,5.8,��
2023/02/10,05:00,0.551,0.801,0.506,1.030,0.712,0.316,0.577,0.549,�k��,5.4,��
2023/02/10,05:10,0.552,0.801,0.506,1.030,0.713,0.317,0.576,0.550,�k��,5.3,��
2023/02/10,05:20,0.552,0.801,0.505,1.029,0.711,0.317,0.577,0.550,�k��,5.3,��
2023/02/10,05:30,0.551,0.802,0.506,1.032,0.712,0.315,0.576,0.550,�k��,5.2,��
2023/02/10,05:40,0.553,0.803,0.506,1.028,0.711,0.317,0.577,0.550,�k��,5.6,��
2023/02/10,05:50,0.553,0.802,0.505,1.031,0.712,0.315,0.578,0.550,�k�k��,6.6,��
2023/02/10,06:00,0.552,0.803,0.507,1.030,0.712,0.316,0.579,0.551,�k��,6.2,��
2023/02/10,06:10,0.552,0.801,0.505,1.029,0.714,0.317,0.578,0.550,�k��,5.5,��
2023/02/10,06:20,0.552,0.801,0.506,1.031,0.712,0.318,0.576,0.550,�k��,5.5,��
2023/02/10,06:30,0.552,0.800,0.507,1.033,0.711,0.317,0.577,0.550,�k��,4.8,��
2023/02/10,06:40,0.552,0.801,0.506,1.029,0.713,0.316,0.578,0.551,�k��,4.7,��
2023/02/10,06:50,0.553,0.803,0.507,1.029,0.711,0.316,0.578,0.551,�k��,5.0,��
2023/02/10,07:00,0.553,0.803,0.504,1.030,0.712,0.319,0.579,0.550,�k��,5.8,��
2023/02/10,07:10,0.552,0.803,0.505,1.030,0.713,0.316,0.578,0.551,�k��,4.9,��
2023/02/10,07:20,0.553,0.801,0.505,1.030,0.712,0.317,0.579,0.550,�k��,4.9,��
2023/02/10,07:30,0.553,0.801,0.505,1.031,0.712,0.316,0.579,0.550,�k��,5.3,��
2023/02/10,07:40,0.552,0.801,0.507,1.031,0.713,0.317,0.577,0.549,�k��,4.6,��
2023/02/10,07:50,0.554,0.802,0.506,1.031,0.710,0.317,0.575,0.551,�k��,4.0,��
2023/02/10,08:00,0.553,0.801,0.507,1.031,0.712,0.316,0.578,0.550,�k��,3.6,��
2023/02/10,08:10,0.554,0.801,0.507,1.031,0.713,0.318,0.578,0.552,�k��,3.8,��
2023/02/10,08:20,0.552,0.802,0.508,1.031,0.714,0.317,0.579,0.549,�k��,5.6,��
2023/02/10,08:30,0.553,0.801,0.507,1.031,0.713,0.316,0.578,0.551,�k��,5.8,�L
2023/02/10,08:40,0.555,0.801,0.508,1.035,0.713,0.317,0.579,0.549,�k��,4.9,�L
2023/02/10,08:50,0.553,0.803,0.507,1.031,0.712,0.318,0.579,0.550,�k��,5.5,�L
2023/02/10,09:00,0.554,0.802,0.509,1.033,0.713,0.318,0.577,0.552,�k��,4.3,��
2023/02/10,09:10,0.554,0.802,0.507,1.032,0.715,0.317,0.581,0.551,�k��,5.3,�L
2023/02/10,09:20,0.555,0.803,0.508,1.030,0.714,0.318,0.579,0.551,�k��,5.1,�L
2023/02/10,09:30,0.554,0.800,0.507,1.033,0.714,0.318,0.579,0.551,�k�k��,4.2,��
2023/02/10,09:40,0.554,0.802,0.509,1.034,0.714,0.318,0.579,0.551,�k�k��,4.5,��
2023/02/10,09:50,0.555,0.804,0.508,1.033,0.715,0.318,0.579,0.551,�k�k��,4.6,��
2023/02/10,10:00,0.556,0.801,0.509,1.032,0.713,0.317,0.580,0.552,�k��,3.6,��
2023/02/10,10:10,0.555,0.802,0.509,1.034,0.715,0.318,0.580,0.549,�k��,5.3,��
2023/02/10,10:20,0.555,0.803,0.509,1.032,0.715,0.318,0.579,0.551,�k��,5.4,�L
2023/02/10,10:30,0.555,0.803,0.508,1.032,0.715,0.318,0.579,0.550,�k�k��,4.4,�L
2023/02/10,10:40,0.554,0.801,0.507,1.033,0.715,0.317,0.579,0.551,�k��,4.5,�L
2023/02/10,10:50,0.556,0.801,0.508,1.034,0.715,0.317,0.580,0.553,�k��,5.6,�L
2023/02/10,11:00,0.553,0.803,0.508,1.030,0.713,0.319,0.577,0.551,�k��,6.1,�L
2023/02/10,11:10,0.554,0.801,0.507,1.031,0.713,0.316,0.579,0.550,�k��,6.9,�L
2023/02/10,11:20,0.553,0.798,0.508,1.028,0.710,0.319,0.577,0.551,�k��,6.9,�L
2023/02/10,11:30,0.552,0.799,0.507,1.029,0.710,0.317,0.578,0.549,�k��,6.9,�L
2023/02/10,11:40,0.552,0.798,0.506,1.028,0.707,0.317,0.577,0.548,�k��,5.9,�L
2023/02/10,11:50,0.552,0.795,0.506,1.027,0.708,0.317,0.578,0.549,�k��,6.0,�L
2023/02/10,12:00,0.552,0.797,0.506,1.027,0.707,0.317,0.578,0.549,�k��,6.2,�L
2023/02/10,12:10,0.550,0.797,0.505,1.025,0.708,0.316,0.576,0.549,�k�k��,6.3,�L
2023/02/10,12:20,0.552,0.797,0.505,1.029,0.707,0.316,0.576,0.550,�k�k��,5.8,�L
2023/02/10,12:30,0.550,0.794,0.505,1.026,0.708,0.319,0.576,0.550,�k�k��,5.8,�L
2023/02/10,12:40,0.551,0.794,0.506,1.025,0.707,0.318,0.576,0.549,�k�k��,6.0,�L
2023/02/10,12:50,0.551,0.794,0.505,1.024,0.706,0.316,0.576,0.548,�k��,5.6,�L
2023/02/10,13:00,0.550,0.792,0.505,1.026,0.707,0.316,0.577,0.549,�k��,6.3,�L
2023/02/10,13:10,0.549,0.792,0.504,1.023,0.703,0.316,0.576,0.548,�k��,7.5,�L
2023/02/10,13:20,0.548,0.786,0.502,1.023,0.702,0.316,0.574,0.550,�k�k��,7.0,�L
2023/02/10,13:30,0.549,0.785,0.502,1.020,0.702,0.317,0.573,0.549,�k��,6.7,�L
2023/02/10,13:40,0.544,0.784,0.500,1.021,0.698,0.316,0.572,0.547,�k��,7.6,�L
2023/02/10,13:50,0.546,0.781,0.500,1.019,0.698,0.316,0.570,0.546,�k�k��,7.1,�L
2023/02/10,14:00,0.545,0.781,0.501,1.017,0.696,0.317,0.571,0.549,�k�k��,7.6,�L
2023/02/10,14:10,0.545,0.779,0.499,1.016,0.695,0.317,0.571,0.547,�k��,7.4,�L
2023/02/10,14:20,0.542,0.775,0.498,1.016,0.693,0.316,0.571,0.547,�k�k��,6.6,�L
2023/02/10,14:30,0.542,0.774,0.497,1.014,0.690,0.318,0.571,0.544,�k�k��,6.4,�L
2023/02/10,14:40,0.541,0.772,0.497,1.014,0.690,0.318,0.570,0.545,�k��,8.1,�L
2023/02/10,14:50,0.541,0.772,0.497,1.011,0.685,0.317,0.569,0.546,�k�k��,7.2,�L
2023/02/10,15:00,0.540,0.768,0.495,1.009,0.683,0.317,0.569,0.544,�k��,7.8,�L
2023/02/10,15:10,0.538,0.767,0.495,1.009,0.683,0.316,0.568,0.542,�k�k��,6.0,�L
2023/02/10,15:20,0.537,0.763,0.493,1.008,0.679,0.316,0.568,0.542,�k��,7.1,�L
2023/02/10,15:30,0.534,0.762,0.491,1.005,0.678,0.317,0.566,0.543,�k��,8.2,�L
2023/02/10,15:40,0.534,0.757,0.491,1.002,0.673,0.317,0.563,0.541,�k�k��,7.1,�L
2023/02/10,15:50,0.530,0.753,0.487,1.002,0.671,0.316,0.563,0.541,�k��,7.6,�L
2023/02/10,16:00,0.529,0.750,0.488,0.999,0.670,0.317,0.561,0.539,�k��,7.9,�L
2023/02/10,16:10,0.528,0.747,0.485,0.997,0.666,0.315,0.562,0.540,�k��,7.8,�L
2023/02/10,16:20,0.526,0.743,0.484,0.995,0.661,0.315,0.559,0.538,�k�k��,7.7,�L
2023/02/10,16:30,0.525,0.741,0.482,0.992,0.662,0.314,0.558,0.537,�k��,8.9,�L
2023/02/10,16:40,0.523,0.739,0.481,0.990,0.659,0.313,0.559,0.535,�k��,8.6,�L
2023/02/10,16:50,0.522,0.736,0.480,0.988,0.655,0.315,0.556,0.537,�k�k��,6.9,�L
2023/02/10,17:00,0.519,0.732,0.478,0.986,0.654,0.312,0.557,0.535,�k�k��,8.7,�L
2023/02/10,17:10,0.517,0.730,0.475,0.981,0.650,0.312,0.553,0.534,�k�k��,7.2,�L
2023/02/10,17:20,0.516,0.728,0.476,0.979,0.648,0.311,0.550,0.532,�k��,9.9,�L
2023/02/10,17:30,0.515,0.725,0.472,0.976,0.645,0.311,0.548,0.533,�k�k��,8.5,�L
2023/02/10,17:40,0.514,0.724,0.471,0.975,0.643,0.311,0.548,0.530,�k�k��,7.5,�L
2023/02/10,17:50,0.511,0.722,0.471,0.969,0.640,0.309,0.545,0.532,�k��,6.9,�L
2023/02/10,18:00,0.510,0.720,0.468,0.965,0.639,0.310,0.546,0.531,�k�k��,9.0,�L
2023/02/10,18:10,0.508,0.718,0.469,0.962,0.634,0.309,0.545,0.530,�k�k��,8.6,�L
2023/02/10,18:20,0.507,0.715,0.466,0.962,0.632,0.307,0.546,0.530,�k�k��,9.0,�L
2023/02/10,18:30,0.504,0.713,0.463,0.958,0.631,0.304,0.543,0.528,�k�k��,7.8,�L
2023/02/10,18:40,0.505,0.711,0.463,0.954,0.628,0.304,0.544,0.529,�k��,7.5,�L
2023/02/10,18:50,0.502,0.710,0.461,0.952,0.625,0.303,0.541,0.530,�k�k��,6.4,�L
2023/02/10,19:00,0.501,0.705,0.460,0.949,0.623,0.302,0.541,0.528,�k,1.2,�L
2023/02/10,19:10,0.499,0.703,0.458,0.943,0.619,0.302,0.540,0.527,�k�k��,6.1,�L
2023/02/10,19:20,0.498,0.700,0.456,0.943,0.617,0.301,0.539,0.526,�k��,9.0,�L
2023/02/10,19:30,0.494,0.700,0.456,0.939,0.616,0.301,0.538,0.528,�k�k��,7.7,�L
2023/02/10,19:40,0.492,0.696,0.453,0.936,0.612,0.299,0.537,0.527,�k�k��,9.8,�L
2023/02/10,19:50,0.491,0.694,0.451,0.935,0.610,0.298,0.538,0.526,�k�k��,9.1,�L
2023/02/10,20:00,0.489,0.692,0.450,0.930,0.608,0.298,0.536,0.526,�k�k��,7.5,�L
2023/02/10,20:10,0.487,0.689,0.447,0.929,0.603,0.299,0.535,0.526,�k�k��,9.0,�L
2023/02/10,20:20,0.487,0.686,0.448,0.932,0.601,0.298,0.537,0.524,�k�k��,9.7,�L
2023/02/10,20:30,0.484,0.682,0.445,0.928,0.597,0.297,0.538,0.524,�k��,8.8,�L
2023/02/10,20:40,0.483,0.681,0.444,0.930,0.598,0.298,0.539,0.525,�k,2.6,�L
2023/02/10,20:50,0.482,0.675,0.443,0.928,0.594,0.295,0.540,0.523,�k��,11.8,�L
2023/02/10,21:00,0.480,0.672,0.444,0.924,0.592,0.298,0.538,0.525,�k��,9.1,�L
2023/02/10,21:10,0.480,0.670,0.441,0.925,0.591,0.295,0.539,0.526,�k,3.5,�L
2023/02/10,21:20,0.477,0.668,0.439,0.926,0.587,0.296,0.537,0.524,�k��,8.6,�L
2023/02/10,21:30,0.477,0.664,0.439,0.927,0.589,0.293,0.538,0.525,�k�k��,6.6,�L
2023/02/10,21:40,0.476,0.661,0.439,0.926,0.584,0.295,0.539,0.524,�k,7.9,�L
2023/02/10,21:50,0.477,0.661,0.439,0.926,0.583,0.293,0.540,0.524,�k�k��,9.4,�L
2023/02/10,22:00,0.476,0.663,0.440,0.926,0.584,0.295,0.540,0.526,�k�k��,10.5,�L
2023/02/10,22:10,0.475,0.663,0.439,0.928,0.585,0.295,0.540,0.526,�k�k��,10.7,�L
2023/02/10,22:20,0.477,0.662,0.440,0.929,0.583,0.292,0.539,0.526,�k�k��,10.6,�L
2023/02/10,22:30,0.475,0.663,0.439,0.926,0.584,0.294,0.542,0.526,�k�k��,8.8,�L
2023/02/10,22:40,0.475,0.664,0.439,0.929,0.582,0.294,0.541,0.527,�k�k��,9.8,�L
2023/02/10,22:50,0.476,0.661,0.439,0.928,0.584,0.293,0.543,0.525,�k�k��,10.7,�L
2023/02/10,23:00,0.477,0.663,0.439,0.929,0.585,0.295,0.544,0.528,�k,10.2,�L
2023/02/10,23:10,0.479,0.667,0.441,0.933,0.583,0.295,0.542,0.528,�k�k��,11.1,�L
2023/02/10,23:20,0.478,0.666,0.441,0.930,0.583,0.295,0.543,0.528,�k,12.2,�L
2023/02/10,23:30,0.479,0.668,0.442,0.934,0.585,0.296,0.545,0.529,�k�k��,13.0,�L
2023/02/10,23:40,0.480,0.669,0.443,0.932,0.583,0.296,0.544,0.528,�k�k��,14.1,�L
2023/02/10,23:50,0.480,0.669,0.443,0.933,0.583,0.296,0.544,0.530,�k�k��,13.5,�L
